Flag for Germany Weather past 2 weeks in Göttingen, Lower Saxony, Germany

Now
63 °F

Partly sunny.


Feels Like: 63 °F
Forecast: 44 / 59 °F
Wind: 1 mph from North

Location: Kassel / Calden

Current Time: May 24, 2015 at 8:30:14 PM

Latest Report: May 24, 2015 at 7:50 PM


Visibility: N/A

Pressure: 30.04 "Hg

Humidity: 64%

Dew point: 50 °F

Location of GöttingenLocation

Historic Weather in Göttingen — Graph

°F

Göttingen temperature yesterday

Maximum temperature yesterday: 66 °F (at 1:50 PM)
Minimum temperature yesterday: 52 °F (at 6:20 AM)
Average temperature yesterday: 58 °F

Past Weeks' High & Low Weather Summary

 TemperatureHumidityPressure
High79 °F (May 12, 2:50 PM)94% (May 16, 8:50 PM)30.33 "Hg (May 16, 8:50 PM)
Low37 °F (May 16, 5:50 AM)34% (May 22, 3:20 PM)29.65 "Hg (May 18, 7:20 PM)
Average57 °F60%30.07 "Hg
* Reported May 9 7:20 PM — May 24 7:20 PM, Göttingen, Weather by CustomWeather, © 2015

Note: Actual official high and low records may vary slightly from our data, if they occured in-between our weather recording intervals... More about our weather records

Advertising

Göttingen weather history for previous 24 hours

 ConditionsComfort  
Time TempWeatherWind HumidityBarometerVisibility
7:20 PM
Sun, May 24
64 °FPartly sunny.2 mph60%30.04 "HgN/A
6:50 PM63 °FPartly sunny.3 mph64%30.04 "HgN/A
6:20 PM64 °FPartly sunny.3 mph60%30.04 "HgN/A
5:50 PM63 °FPartly sunny.5 mph64%30.04 "HgN/A
5:20 PM64 °FPartly sunny.5 mph60%30.04 "HgN/A
4:50 PM64 °FScattered clouds.3 mph60%30.04 "HgN/A
4:20 PM66 °FScattered clouds.3 mph56%30.07 "HgN/A
3:50 PM64 °FBroken clouds.3 mph56%30.07 "HgN/A
3:20 PM64 °FPartly sunny.2 mph60%30.07 "HgN/A
2:50 PM63 °FPartly sunny.3 mph59%30.09 "HgN/A
2:20 PM64 °FPartly sunny.3 mph60%30.09 "HgN/A
1:50 PM61 °FPartly sunny.6 mph68%30.09 "HgN/A
1:20 PM61 °FPartly sunny.3 mph63%30.09 "HgN/A
12:50 PM61 °FPartly sunny.3 mph63%30.09 "HgN/A
12:20 PM59 °FPartly sunny.3 mph72%30.12 "HgN/A
11:50 AM57 °FPartly sunny.2 mph72%30.12 "HgN/A
11:20 AM55 °FPartly sunny.3 mph77%30.12 "HgN/A
10:50 AM55 °FPartly sunny.3 mph72%30.12 "HgN/A
10:20 AM54 °FPartly sunny.1 mph77%30.12 "HgN/A
9:50 AM52 °FPartly sunny.2 mph77%30.12 "HgN/A
9:20 AM50 °FPartly sunny.1 mph82%30.12 "HgN/A
8:50 AM48 °FBroken clouds.2 mph87%30.15 "HgN/A
8:20 AM46 °FBroken clouds.2 mph87%30.12 "HgN/A
7:50 AM46 °FPartly sunny.1 mph87%30.12 "HgN/A
7:20 AM45 °FBroken clouds.2 mph93%30.12 "Hg6 mi
6:50 AM45 °FPartly sunny.5 mph93%30.12 "Hg6 mi
6:20 AM43 °FScattered clouds.5 mph93%30.12 "HgN/A
5:50 AM43 °FPassing clouds.2 mph93%30.12 "HgN/A
9:50 PM
Sat, May 23
54 °FBroken clouds.9 mph88%30.15 "HgN/A
9:20 PM54 °FMore clouds than sun.9 mph88%30.12 "HgN/A
8:50 PM54 °FMore clouds than sun.12 mph88%30.12 "HgN/A
8:20 PM54 °FBroken clouds.10 mph88%30.12 "HgN/A
Weather by CustomWeather, © 2015

See weather overviewHow to use our weather pages